Flag for Turkey

Past Weather in Ankara, Turkey — Yesterday and Last 2 Weeks

Now
81 °F

Scattered clouds.


Feels Like: 79 °F
Forecast: 78 / 58 °F
Wind: 9 mph from East

Location: Ankara / Guvercin Lik
Current Time: Sep 19, 2020 at 7:16:37 pm
Latest Report: Sep 19, 2020 at 5:50 pm
Visibility: N/A
Pressure29.98 "Hg(27.15 "Hg at 871m altitude)
Humidity: 28%
Dew Point: 45 °F
Location of AnkaraLocation

Past Weather in Ankara — Graph

°F

Ankara Temperature Yesterday

Maximum temperature yesterday: 88 °F (at 2:50 pm)
Minimum temperature yesterday: 55 °F (at 6:50 am)
Average temperature yesterday: 73 °F

High & Low Weather Summary for the Past Weeks

 TemperatureHumidityPressure
High93 °F (Sep 12, 3:50 pm)77% (Sep 7, 5:50 am)30.21 "Hg (Sep 7, 5:50 am)
Low54 °F (Sep 17, 6:50 am)12% (Sep 17, 3:50 pm)29.89 "Hg (Sep 4, 6:50 pm)
Average74 °F43%30.04 "Hg
* Reported Sep 4 6:50 pm — Sep 19 5:50 pm, Ankara. Weather by CustomWeather, © 2020

Note: Actual official high and low records may vary slightly from our data, if they occured in-between our weather recording intervals... More about our weather records

Ankara Weather History for the Previous 24 Hours

Scroll right to see more
 ConditionsComfort  
Time TempWeatherWind HumidityBarometerVisibility
5:50 pm
Sat, Sep 19
81 °FScattered clouds.9 mph28%29.98 "HgN/A
4:50 pm81 °FScattered clouds.7 mph28%29.98 "HgN/A
3:50 pm81 °FScattered clouds.7 mph28%30.01 "HgN/A
2:50 pm79 °FScattered clouds.8 mph32%30.04 "HgN/A
1:50 pm79 °FScattered clouds.3 mph32%30.04 "HgN/A
12:50 pm75 °FScattered clouds.7 mph39%30.07 "HgN/A
11:50 am73 °FScattered clouds.10 mph44%30.07 "HgN/A
10:50 am72 °FScattered clouds.15 mph47%30.09 "HgN/A
9:50 am68 °FScattered clouds.9 mph53%30.09 "HgN/A
8:50 am68 °FBroken clouds.5 mph56%30.09 "HgN/A
7:50 am63 °FScattered clouds.No wind73%30.07 "HgN/A
6:50 am63 °FPassing clouds.8 mph68%30.07 "HgN/A
5:50 am63 °FPassing clouds.5 mph68%30.09 "HgN/A
4:50 am64 °FPassing clouds.6 mph60%30.07 "HgN/A
3:50 am64 °FClear.No wind60%30.07 "Hg10 mi
2:50 am66 °FClear.3 mph56%30.04 "Hg10 mi
1:50 am68 °FClear.9 mph56%30.04 "Hg10 mi
12:50 am70 °FClear.13 mph53%30.04 "Hg10 mi
11:50 pm
Fri, Sep 18
72 °FClear.12 mph50%30.04 "Hg10 mi
10:50 pm73 °FPassing clouds.12 mph50%30.04 "HgN/A
9:50 pm75 °FPassing clouds.15 mph44%30.01 "HgN/A
8:50 pm79 °FClear.3 mph34%30.01 "Hg10 mi
7:50 pm81 °FClear.12 mph30%29.98 "Hg10 mi
Weather by CustomWeather, © 2020

See weather overview